Regional Weather Roundup
Issued by NWS

Home | Current Version | Previous Version | Graphics & Text | Print | Product List | Glossary On
Versions: 1 2 3 4 5 6 7 8 9 10 11 12 13 14 15 16 17 18 19 20 21 22 23 24 25 26 27 28 29 30 31 32 33 34 35 36 37 38 39 40 41 42 43 44 45 46 47 48 49 50
000
ASUS43 KMPX 291001
RWRMN
WEATHER ROUNDUP FOR MINNESOTA
NATIONAL WEATHER SERVICE TWIN CITIES/CHANHASSEN MN
500 AM CDT MON MAY 29 2017


NOTE: "FAIR" INDICATES FEW OR NO CLOUDS BELOW 12,000 FEET WITH NO
SIGNIFICANT WEATHER AND/OR OBSTRUCTIONS TO VISIBILITY. N/A MEANS
CURRENT SKY AND/OR WEATHER CONDITIONS ARE NOT AVAILABLE.

MNZ060>063-068>070-291100-
   Twin Cities Metro

CITY           SKY/WX    TMP DP  RH WIND       PRES   REMARKS
TWIN CITIES    CLOUDY    55  46  71 W12       29.75R
ST PAUL        MOCLDY    53  48  83 W10       29.75R
CRYSTAL        CLOUDY    54  45  71 W9        29.73R
BLAINE         PTCLDY    54  48  82 W8        29.74R
LAKEVILLE      PTCLDY    52  46  82 W7        29.76R
EDEN PRAIRIE   CLOUDY    55  47  74 W8        29.75R
SOUTH ST PAUL  PTCLDY    54  47  75 W8        29.75R
LAKE ELMO      MOCLDY    52  50  93 W9G16     29.74R
$$
MNZ001>005-007-008-013>017-022>024-027-028-291100-
   Northwest Minnesota

CITY           SKY/WX    TMP DP  RH WIND       PRES   REMARKS
BEMIDJI        CLOUDY    46  46  97 NW12      29.73R
HALLOCK        CLOUDY    48  46  93 NW15      29.79S
ROSEAU         CLOUDY    48  43  81 NW12G21   29.75R
WARROAD        CLOUDY    48  45  87 NW13G23   29.73S
THIEF RVR FALL CLOUDY    48  46  93 N20       29.78R
CROOKSTON      LGT RAIN  48  48 100 N20       29.80R
FOSSTON        DRIZZLE   46  46 100 NW10G16   29.77R
DETROIT LAKES  CLOUDY    48  46  93 NW17G23   29.79R
MOORHEAD       CLOUDY    50  48  93 NW12      29.82R FOG
PARK RAPIDS    CLOUDY    50  45  83 NW14      29.73S
MAHNOMEN       CLOUDY    48  47  95 NW15      29.77R
$$
MNZ006-009>011-018-025>026-291100-
   North Central Minnesota

CITY           SKY/WX    TMP DP  RH WIND       PRES   REMARKS
BAUDETTE       CLOUDY    49  47  93 NW13      29.69S
FLAG ISLAND    CLOUDY    48  46  93 NW18      29.69S
INTL FALLS     CLOUDY    50  47  89 W9        29.64S
WASKISH        CLOUDY    48  46  93 NW13G22   29.71R
BIG FORK       RAIN      48  46  93 W3        29.68R
LONGVILLE      RAIN      50  46  87 W7        29.71R
GRAND RAPIDS   CLOUDY    50  47  89 NW12      29.70R
CRANE LAKE     DRIZZLE   50  48  93 CALM      29.63R
ORR            DRIZZLE   50  46  87 NW9       29.61S
COOK           DRIZZLE   50  48  93 W9        29.64R
WALKER         CLOUDY    47  46  93 NW9       29.72S
$$
MNZ012-019>021-037-291100-
   Northeast Minnesota

CITY           SKY/WX    TMP DP  RH WIND       PRES   REMARKS
DULUTH         CLOUDY    52  49  89 NW13      29.63R
ELY            LGT RAIN  52  50  93 W5        29.59S
HIBBING        CLOUDY    49  48  97 NW14      29.64R
EVELETH        CLOUDY    53  47  81 NW7G16    29.64S
DULUTH HARBOR  CLOUDY    55  52  88 W12       29.64R
TWO HARBORS    CLOUDY    55  50  82 W6        29.59S
SILVER BAY     CLOUDY    54  52  94 CALM      29.57S
GRAND MARAIS     N/A     43  43 100 CALM      29.56S
G MARAIS ARPRT CLOUDY    50  45  81 NW3       29.56S
$$
MNZ029>031-032-039>041-046>048-054>057-064-291100-
   West Central Minnesota

CITY           SKY/WX    TMP DP  RH WIND       PRES   REMARKS
FERGUS FALLS   CLOUDY    48  48 100 NW17      29.80R
WHEATON        CLOUDY    54  46  76 W14       29.85R
MORRIS         CLOUDY    54  48  82 NW15G23   29.81R
ALEXANDRIA     CLOUDY    51  47  86 NW15      29.79R
ELBOW LAKE     DRIZZLE   50  49  95 NW22G29   29.81S
WADENA         CLOUDY    48  45  87 NW16      29.75S
GLENWOOD       MOCLDY    52  46  82 NW16      29.79R
APPLETON       CLOUDY    55  46  71 NW16      29.82S
BENSON         CLOUDY    54  46  76 N14G20    29.82S
ORTONVILLE     PTCLDY    54  46  76 W10       29.83S
MADISON        MOCLDY    54  46  76 W9        29.84S
WILLMAR        CLOUDY    54  48  82 W13       29.82R
$$
MNZ033>034-036-042>043-049>051-058-059-291100-
   Central Minnesota

CITY           SKY/WX    TMP DP  RH WIND       PRES   REMARKS
ST CLOUD       MOCLDY    51  48  89 NW10G23   29.75R
SAUK CENTRE    CLOUDY    50  46  86 W10       29.78R
PAYNESVILLE    CLOUDY    52  46  79 W9        29.78S
AITKIN         CLOUDY    50  46  87 CALM      29.69S
PINE RIVER     CLOUDY    50  46  87 W7        29.76S
BRAINERD       CLOUDY    51  46  83 W13       29.73R
STAPLES        RAIN      48  45  87 W13       29.74S
LONG PRAIRIE   CLOUDY    50  45  81 W12G17    29.77R
LITTLE FALLS   CLOUDY    50  45  81 NW8       29.75R
LITCHFIELD     PTCLDY    54  48  82 W10       29.79R
BUFFALO        CLOUDY    54  47  77 W9G17     29.77R
MAPLE LAKE     CLOUDY    54  49  83 W9G16     29.77R
HUTCHINSON     CLOUDY    52  47  82 W14       29.80R
$$
MNZ037-044-045-052-053-291100-
   East Central Minnesota

CITY           SKY/WX    TMP DP  RH WIND       PRES   REMARKS
PRINCETON      MOCLDY    52  48  87 W8        29.74R
MORA           CLOUDY    50  46  87 W9        29.72S
CAMBRIDGE      CLOUDY    54  46  76 W6        29.71R
RUSH CITY      CLOUDY    51  47  87 W7        29.71R
MOOSE LAKE     CLOUDY    50  46  87 W7        29.66S
HINCKLEY       CLOUDY    52  50  93 W7        29.69S
CLOQUET        CLOUDY    52  48  87 W9G16     29.65S
MCGREGOR       CLOUDY    50  48  93 W7        29.70R
$$
MNZ071>073-080-081-089-090-097-098-291100-
   Southwest Minnesota

CITY           SKY/WX    TMP DP  RH WIND       PRES   REMARKS
MONTEVIDEO     CLOUDY    54  46  76 N10G16    29.83R
CANBY          CLOUDY    52  46  78 NW13      29.86S
MARSHALL       PTCLDY    50  44  80 W9        29.85S
REDWOOD FALLS  PTCLDY    51  43  74 W10       29.82R
OLIVIA         MOCLDY    52  45  76 W9        29.81S
PIPESTONE      CLEAR     48  41  76 NW8       29.88S
WINDOM         CLEAR     52  45  76 W12       29.85S
WORTHINGTON    CLEAR     50  44  80 W13       29.87F
JACKSON        CLEAR     52  43  71 W9G17     29.86S
TRACY          CLEAR     52  46  78 W8        29.85F
SLAYTON        CLEAR     48  45  87 W10       29.88S
$$
MNZ065>067-074>077-082>085-091>093-291100-
   South Central Minnesota

CITY           SKY/WX    TMP DP  RH WIND       PRES   REMARKS
MANKATO        PTCLDY    52  44  74 W14       29.81R
NEW ULM        CLEAR     50  43  76 W10       29.82R
ST JAMES       CLEAR     52  45  76 W9        29.84S
FAIRMONT       CLEAR     53  44  71 NW14      29.84R
GLENCOE        CLOUDY    55  49  83 W7        29.78R
FARIBAULT      PTCLDY    54  46  76 W10       29.79R
OWATONNA       MOCLDY    54  45  71 W15       29.79S
WASECA         PTCLDY    52  45  76 W12       29.81R
ALBERT LEA     CLEAR     54  46  76 W9        29.80R
$$
MNZ078>079-086>088-094>096-291100-
   Southeast Minnesota

CITY           SKY/WX    TMP DP  RH WIND       PRES   REMARKS
ROCHESTER      CLEAR     51  45  79 W16       29.77R
RED WING       CLOUDY    55  46  71 W9G16     29.73R
STANTON        MOCLDY    53  47  78 W9        29.75R
DODGE CENTER   CLEAR     52  45  76 W13       29.78R
WINONA         CLEAR     55  45  67 W9G16     29.73S
AUSTIN         CLEAR     52  45  76 NW12      29.78S
PRESTON        CLEAR     51  43  75 NW15G21   29.77R
$$
ABBREVIATIONS USED IN REMARKS
   TC - TEMPERATURES IN CELSIUS
  WCI - WIND CHILL INDEX
   HX - HEAT INDEX
  VSB - VISIBILITY
$$



USA.gov is the U.S. government's official web portal to all federal, state and local government web resources and services.